Regional Weather Roundup
Issued by NWS Green Bay, WI

Home | Current Version | Previous Version | Graphics & Text | Print | Product List | Glossary Off
Versions: 1 2 3 4 5 6 7 8 9 10 11 12 13 14 15 16 17 18 19 20 21 22 23 24 25 26 27 28 29 30 31 32 33 34 35 36 37 38 39 40 41 42 43 44 45 46 47 48 49 50

055
ASUS43 KGRB 251800
RWRGRB

NORTH-CENTRAL AND NORTHEAST WISCONSIN REGIONAL WEATHER ROUNDUP
NATIONAL WEATHER SERVICE GREEN BAY WI
100 PM CDT WED APR 25 2018

WIZ005-009-010>012-018-019-251900-
NORTH CENTRAL WISCONSIN

CITY           SKY/WX    TMP DP  RH WIND       PRES   REMARKS
IRONWOOD       FAIR      43  24  47 NW8       30.16F
MANITOWISH WTR NOT AVBL
ARBOR VITAE    NOT AVBL
EAGLE RIVER    FAIR      45  23  42 NW8       30.11F
LAND O LAKES   FAIR      44  22  42 N7        30.13F
RHINELANDER    FAIR      47  25  42 NW7       30.12F
PHILLIPS       FAIR      47  26  43 NE5       30.14F
ANTIGO         NOT AVBL
TOMAHAWK       NOT AVBL
MERRILL        NOT AVBL
$$

WIZ013-073-251900-
NORTHEAST WISCONSIN

CITY           SKY/WX    TMP DP  RH WIND       PRES   REMARKS
IRON MOUNTAIN  FAIR      50  27  40 NW8       30.09F
MARINETTE      FAIR      44  28  53 E9        30.13F
$$

WIZ017-030-035>037-045-251900-
CENTRAL WISCONSIN

CITY           SKY/WX    TMP DP  RH WIND       PRES   REMARKS
MEDFORD        NOT AVBL
WAUSAU         FAIR      49  27  42 N7        30.11F
MOSINEE        SUNNY     48  30  49 NW9       30.14F
MARSHFIELD     FAIR      49  31  49 MISG      30.12F
WISC RAPIDS    FAIR      51  29  42 NW6       30.14F
STEVENS POINT  NOT AVBL
WAUPACA        FAIR      54  29  38 NW7       30.13F
SHAWANO        FAIR      51  30  44 NE5       30.11F
CLINTONVILLE   FAIR      48  26  42 N3        30.12F
WAUTOMA        FAIR      52  27  38 VRB5      30.12F
$$

WIZ038-039-048-051-251900-
FOX VALLEY

CITY           SKY/WX    TMP DP  RH WIND       PRES   REMARKS
NWS GREEN BAY  FAIR      48  33  56 VRB5      30.12F
APPLETON       MOSUNNY   46  27  46 N9        30.11F
OSHKOSH        FAIR      48  32  53 E10G17    30.12F
FOND DU LAC    FAIR      48  31  51 NE14      30.13F
$$

WIZ022-050-052-251900-
EAST CENTRAL WISCONSIN

CITY           SKY/WX    TMP DP  RH WIND       PRES   REMARKS
EPHRAIM        NOT AVBL
WASHINGTON ISL NOT AVBL
STURGEON BAY   FAIR      45  29  53 N13       30.13F
MANITOWOC      FAIR      48  30  49 NW12      30.12F
SHEBOYGAN      FAIR      49  32  52 NE8       30.11F
$$

LMZ563-521-522-541>543-251900-
LAKESHORE

STATION/POSITION TIME  TEMP    WIND        PRES    VSBY  WAVE
                       AIR SEA DIR/SP/G                  HT/PER
                 (UTC) (F)     (DEG/KT/KT) (MB)    (MI)  (FT/S)
SHEBOYGAN LKSHOR 1700   38      30/ 12/ 14 1020.6F
KEWAUNEE LKSHORE 1730   46      30/  9/ 14 1019.7S
NORTHPORT PIER   1740   40                 1020.0S
SISTER BAY LKSHO 1712   42     340/ 10/ 10   N/A
MENOMINEE LKSHOR 1730   39      80/  5/  6 1020.0F
$$




USA.gov is the U.S. government's official web portal to all federal, state and local government web resources and services.